www.pogodaiklimat.ru

Погода и климат >> Архив погоды >> Россия >> Магаданская область >> Мыс Алевина


АРХИВ ПОГОДЫ на Мысе Алевина

Время (UTC), дата Ветер
(напр.,м/с)
 
Видим.   Явления Облачность Т
(С)
Тd
(С)
f
(%)
Тe
(С)
Тes
(С)
Комфортность P
(гПа)
Po
(гПа)
Тmin
(С)
Tmax
(С)
R
(мм)
R24
(мм)
S
(см)
03 13.09 З 6 50 км 3/0
[Ac trans Ci fib]
+12.2 +8.5 78 +10 +12 1012.5 1004.7
06 13.09 З 6 50 км 4/3 1000 м
[Sc Ci fib]
+11.2 +8.5 83 +8 +9 1012.3 1004.5
09 13.09 СЗ 6 50 км 8/5 1000 м
[Sc Ac trans Ci fib]
+9.9 +8.1 89 +6 +6 1012.7 1004.8 +12.8
12 13.09 В 4 50 км 8/6 1000 м
[Sc Ac trans Ci fib]
+8.0 +7.2 95 +5 +5 1012.6 1004.6
15 13.09 В 3 50 км 10/10 1000 м
[Sc]
+8.0 +7.3 95 +5 +5 1012.7 1004.7
18 13.09 В 5 20 км слаб. ливневой дождь 10/10 600 м
[Cb cap]
+7.6 +7.3 98 +4 +4 1012.3 1004.3
21 13.09 В 7-10
{10}
500 м туман ?/? +7.2 +7.0 99 +2 +2 1011.8 1003.9 +7.1
00 14.09 В 10-12
{12}
500 м туман ?/? +7.8 +7.0 95 +2 +2 1011.3 1003.3
03 14.09 В 7-10
{12}
50 км {туман} 10/10 600 м
[Cb calv]
+8.5 +7.2 92 +4 +4 1010.5 1002.6
06 14.09 ЮВ 10-12
{12}
50 км {туман} 10/10 600 м
[Cb calv]
+7.6 +6.7 94 +2 +2 1009.3 1001.4
09 14.09 В 12-15
{15}
50 км 10/10 600 м
[Cb calv]
+7.0 +6.7 98 +1 +1 1008.8 1000.8 +8.6
12 14.09 В 12-15
{15}
50 км 10/10 600 м
[Cb calv]
+7.7 +6.6 93 +2 +2 1007.5 999.6
15 14.09 В 12-16
{17}
50 км 10/10 600 м
[Cb calv]
+8.2 +5.1 81 +3 +3 1005.8 997.9
18 14.09 В 14-19
{19}
50 км 10/10 600 м
[Cb calv]
+8.4 -0.7 53 +3 +3 1003.9 996.0
21 14.09 В 17-22
{22}
50 км 10/10 600 м
[Cb calv]
+7.9 +3.9 76 +1 +1 1002.5 994.6 +7.1
00 15.09 В 17-22
{24}
50 км 10/10 600 м
[Cb calv]
+8.5 +5.5 81 +2 +2 1000.5 992.7
03 15.09 В 17-22
{23}
20 км слаб. ливневой дождь 10/10 600 м
[Cb cap]
+8.4 +7.3 93 +2 +2 999.7 991.9
06 15.09 В 15-19
{23}
20 км слаб. ливневой дождь 10/10 600 м
[Cb cap]
+8.4 +7.8 96 +2 +2 999.7 991.8
09 15.09 В 12-15
{19}
50 км {ливн. осадки} 10/10 600 м
[Cb cap]
+8.6 +8.2 97 +3 +3 1001.1 993.3 +9.3 4
12 15.09 ЮВ 6
{16}
10 км слаб. ливневой дождь 10/10 600 м
[Cb cap]
+8.1 +7.8 98 +4 +4 1004.2 996.3
15 15.09 В 7 50 км {ливн. осадки} 10/10 600 м
[Cb cap]
+7.8 +7.2 96 +3 +3 1005.7 997.8
18 15.09 В 7
{10}
10 км ливневой дождь 10/10 600 м
[Cb cap]
+8.0 +6.5 90 +3 +3 1006.9 999.0
21 15.09 В 10-13
{13}
2000 м ливневой дождь 10/10 600 м
[Cb calv]
+7.9 +7.5 97 +2 +2 1006.3 998.4 +7.7 10
00 16.09 В 6
{15}
20 км слаб. ливневой дождь 10/10 600 м
[Cb calv]
+9.8 +8.8 93 +6 +6 1006.6 998.7
03 16.09 СЗ 5 50 км {ливн. осадки} 10/10 600 м
[Cb calv]
+9.6 +8.5 93 +6 +6 1009.5 1001.7
06 16.09 СЗ 7 50 км {ливн. осадки} 4/3 600 м
[Cb calv Ac trans]
+8.9 +7.6 92 +5 +5 1011.3 1003.3
09 16.09 В 5 50 км 3/3 600 м
[Cb calv Ac trans]
+7.1 +6.3 95 +3 +3 1013.1 1005.1 +10.0 7
12 16.09 В 6 50 км 8/4 600 м
[Cb calv Ac trans]
+7.3 +7.1 99 +3 +3 1014.5 1006.5
15 16.09 В 8-10
{10}
50 км 10/5 600 м
[Cb calv Ac trans]
+8.2 +7.4 95 +3 +3 1013.7 1005.8
18 16.09 В 11-14
{14}
50 км 10/4 600 м
[Cb calv Ac trans]
+8.5 +7.2 92 +3 +3 1013.1 1005.2
21 16.09 В 11-14
{15}
50 км 9/8 600 м
[Cb calv Ac trans]
+9.0 +6.9 87 +4 +4 1012.6 1004.7 +6.8
00 17.09 В 11-14
{15}
50 км 10/5 600 м
[Cb calv Ac trans]
+9.5 +7.2 86 +5 +5 1012.2 1004.3
03 17.09 В 12-16
{17}
50 км 6/3 600 м
[Cb calv Ac trans Ci fib]
+10.0 +7.5 84 +5 +5 1010.8 1002.9
06 17.09 ЮВ 11-14
{16}
50 км 8/3 600 м
[Cb calv Ac trans Ci fib]
+8.9 +6.7 86 +4 +4 1010.0 1002.1
09 17.09 В 9-12
{14}
50 км 10/5 1000 м
[Sc Ac trans Ci fib]
+6.7 +6.3 97 +1 +1 1009.7 1001.8 +10.2
12 17.09 В 5
{12}
50 км 10/8 1000 м
[Sc Ac trans Ci fib]
+6.7 +6.3 97 +2 +2 1009.6 1001.6
15 17.09 В 3 50 км 9/0
[Ac trans Ci fib]
+6.1 +5.0 93 +3 +3 1009.3 1001.3
18 17.09 СЗ 2 50 км 10/8 1000 м
[Sc Ac trans Ci fib]
+5.8 +5.1 95 +3 +3 1009.2 1001.3
21 17.09 С 2 50 км 10/3 1000 м
[Sc Ac trans]
+6.9 +5.4 90 +5 +5 1009.7 1001.7 +5.4
00 18.09 СЗ 2 50 км 10/3 1000 м
[Sc Ac trans]
+8.0 +6.9 93 +6 +7 1010.6 1002.7
03 18.09 СЗ 2 50 км 10/3 1000 м
[Sc Ac trans]
+8.4 +6.6 88 +6 +8 1010.8 1002.9
06 18.09 З 3 50 км 8/3 1000 м
[Sc Ac trans]
+9.2 +7.2 87 +7 +7 1011.0 1003.1
09 18.09 СЗ 5 50 км 6/3 1000 м
[Sc Ac trans]
+7.4 +6.2 92 +3 +3 1011.9 1004.0 +9.5
12 18.09 СВ 1 50 км 4/0
[Ac trans]
+5.9 +4.1 88 +5 +5 1012.9 1004.9
15 18.09 СВ 6 50 км 3/3 1000 м
[Sc Ac trans]
+6.5 +3.0 78 +2 +2 1012.8 1004.8
18 18.09 СВ 4 50 км 1/1 1000 м
[Sc]
+6.0 +2.4 78 +2 +2 1012.5 1004.5
21 18.09 С 3 50 км 8/8 1000 м
[Sc]
+7.8 +3.6 75 +5 +5 1012.7 1004.7 +5.4
00 19.09 СЗ 1 50 км 1/1 600 м
[Cb calv]
+11.8 +3.7 58 +12 +17 1012.5 1004.6
03 19.09 ЮВ 2 50 км ясно +10.7 +5.1 68 +10 +15 1012.2 1004.3
06 19.09 ЮЗ 1 50 км 5/1 600 м
[Cb calv Ci fib]
+10.5 +6.6 77 +10 +12 1012.0 1004.1
09 19.09 С 3 50 км 6/3 1000 м
[Sc Ci fib]
+9.2 +4.6 73 +7 +7 1012.3 1004.4 +12.0
12 19.09 СВ 4 50 км 9/8 1000 м
[Sc Ci fib]
+8.5 +3.7 72 +6 +6 1012.7 1004.8
15 19.09 В 1 50 км 10/8 1000 м
[Sc Ci fib]
+8.3 +4.2 75 +8 +8 1012.4 1004.4
18 19.09 ЮВ 3 50 км 6/3 1000 м
[Sc Ac trans Ci fib]
+7.3 +5.1 86 +4 +4 1012.3 1004.3
21 19.09 В 1 50 км 4/3 1000 м
[Sc Ac trans]
+8.1 +4.4 77 +7 +8 1013.0 1005.0 +6.5
00 20.09 СЗ 4 50 км 8/4 1000 м
[Sc Ci fib]
+9.7 +5.1 73 +7 +9 1012.9 1005.0

 

Местоположение метеостанции Мыс Алевина (Магаданская область, Россия): широта 58.83 долгота 151.30 высота над уровнем моря 65 м.

В архиве по умолчанию представлена погода на Мысе Алевина за последнюю неделю. Архивные данные за месяц целиком и за предыдущие месяцы, начиная с января 2011 года, Вы можете получить, выбрав интересующий диапазон дат из раскрывающегося списка и нажав кнопку "Ввод!".


*Определитесь, кто Вы:
робот инопланетянин человек

Внимание! Время в таблицах - всемирное. Для получения местного времени необходимо прибавить поправку, которая равна 11 ч.

Смотрите также архив погоды в соседних городах и на ближайших метеорологических станциях:

Погода в Оле (Магаданская область, Россия) (81 км)
Погода в Нагаева (Магаданская область, Россия) (84 км)
Погода в Магадане (Магаданская область, Россия) (87 км)
Погода в Армани (Магаданская область, Россия) (115 км)
Погода на Мысе Братьев (Магаданская область, Россия) (119 км)
Погода на Острове Спафарьева (Магаданская область, Россия) (137 км)
Погода в Палатке (Магаданская область, Россия) (143 км)
Погода в Талоне (Магаданская область, Россия) (185 км)
Погода в Брохово (Магаданская область, Россия) (188 км)
Погода в Мадауне (Магаданская область, Россия) (200 км)

Пояснения к столбцам:

Ветер - указаны скорость ветра в м/с - средняя за 10 мин, порывы в срок и между сроками (в фигурных скобках) и направление, откуда дует ветер: С - северный, СВ - северо-восточный, В - восточный, ЮВ - юго-восточный, Ю - южный, ЮЗ - юго-западный, З - западный, СЗ - северо-западный.
Видимость - горизонтальная дальность видимости в метрах или километрах. При видимости от 1 до 10 км при отсутствии осадков обычно наблюдается дымка, при ухудшении видимости до 1 км и менее - туман. В сухую погоду видимость может ухудшаться дымом, пылью или мглою.
Явления - указаны атмосферные явления, наблюдавшиеся в срок или в последний час перед сроком; фигурными скобками обозначены явления, наблюдавшиеся между сроками (за 1-3 часа до срока); квадратными скобками обозначены град или гололедные отложения с указанием их диаметра в мм.
Облачность - указаны через наклонную черту общая и нижняя облачность в баллах и высота нижней границы облаков в метрах; квадратными скобками обозначены формы облаков: Ci - перистые, Cs - перисто-слоистые, Cc - перисто-кучевые, Ac - высококучевые, As - высокослоистые, Sc - слоисто-кучевые, Ns - слоисто-дождевые, Cu - кучевые, Cb - кучево-дождевые. Подробнее классификацию облаков см. в Атласе облаков (PDF).
T - Температура воздуха - температура, измеренная на высоте 2 м над землей.
Td - Температура точки росы - температура, при понижении до которой содержащийся в воздухе водяной пар достигнет насыщения.
f - Относительная влажность воздуха - влажноcть воздуха, измеренная на высоте 2 м над землей.
Te - Эффективная температура - температура, которую ощущает одетый по сезону человек в тени. Характеристика душности погоды. При расчете учитывается влияние влажности воздуха и скорости ветра на теплоощущения человека.
Tes - Эффективная температура на солнце - температура, которую ощущает человек, с поправкой на солнечный нагрев. Характеристика знойности погоды. Зависит от высоты солнца над горизонтом, облачности и скорости ветра. Ночью, в пасмурную погоду, а также при ветре 12 м/с и более поправка равна нулю.
P - Атмосферное давление - приведенное к уровню моря атмосферное давление.
Po - Атмосферное давление - измеренное на уровне метеостанции атмосферное давление.
Tmin - Минимальная температура - минимум температуры воздуха на высоте 2 м над землей.
Tmax - Максимальная температура - максимум температуры воздуха на высоте 2 м над землей.
R - Количество осадков - Количество выпавших осадков за период времени, мм. При наведении курсора мыши на число - период времени, за который выпало указанное количество осадков.
R24 - Количество осадков - Количество выпавших осадков за 24 часа, мм.
S - Снежный покров - Высота снежного покрова, см. При наведении курсора мыши на число - состояние снежного покрова и степень покрытия местности в баллах.